User: anonymous   Login
Location: Newark
(44.2003°N, 3.2583°E)
Time: 08:11:57
(UTC+00:00)
Language:

Vanguard 2 - Orbit

View from above orbital plane
View from above orbital plane
View from above satellite
View from above satellite

Ground track
Ground track

The orbit data is extracted from the following two-line orbital elements,

1    11U 59001A   19294.19259490  .00000196  00000-0  98151-4 0  9995
2    11  32.8710 237.4350 1466570 335.1507  18.4852 11.85615624588190
Epoch (UTC): 21 October 2019 04:37:20
Eccentricity: 0.1466570
inclination: 32.8710°
perigee height: 554 km
apogee height: 2937 km
right ascension of ascending node: 237.4350°
argument of perigee: 335.1507°
revolutions per day: 11.85615624
mean anomaly at epoch: 18.4852°
orbit number at epoch: 58819

The dashed part of the orbit path shows where the satellite is in the earth's shadow,  

DLR